User: anonymous   Login
Location: Aytr�
(46.1357°N, 1.1145°W)
Time: 17:06:03
(UTC+00:00)
Language:

Meteor 1-19 Rocket - Orbit

View from above orbital plane
View from above orbital plane
View from above satellite
View from above satellite

Ground track
Ground track

The orbit data is extracted from the following two-line orbital elements,

1 07493U 74083B   21125.38199406 -.00000145  00000-0 -90598-4 0  9993
2 07493  81.1626 213.4025 0083795  73.8328 287.2043 14.07587931387996
Epoch (UTC): 05 May 2021 09:10:04
Eccentricity: 0.0083795
inclination: 81.1626°
perigee height: 807 km
apogee height: 928 km
right ascension of ascending node: 213.4025°
argument of perigee: 73.8328°
revolutions per day: 14.07587931
mean anomaly at epoch: 287.2043°
orbit number at epoch: 38799

The dashed part of the orbit path shows where the satellite is in the earth's shadow,  

DLR